Time,TemperatureF,DewpointF,PressureIn,WindDirection,WindDirectionDegrees,WindSpeedMPH,WindSpeedGustMPH,Humidity,HourlyPrecipIn,Conditions,Clouds,dailyrainin,SoftwareType,DateUTC
2013-01-16 00:00:00,32.1,26.3,30.21,East,81,0.0,0.0,79,0.00,CLR,,0.00,WeatherDisplay:10.37,2013-01-16 05:00:00,
2013-01-16 00:05:00,32.1,26.3,30.20,East,80,1.2,1.2,79,0.00,CLR,,0.00,WeatherDisplay:10.37,2013-01-16 05:05:00,
2013-01-16 10:50:00,32.5,27.0,29.91,ENE,62,3.0,0.0,80,0.00,CLR,,0.00,WeatherDisplay:10.37,2013-01-16 15:50:00,
2013-01-16 10:55:00,32.6,27.1,29.90,SSW,211,3.5,3.5,80,0.00,CLR,,0.00,WeatherDisplay:10.37,2013-01-16 15:55:00,
2013-01-16 11:00:00,32.7,27.2,29.90,South,190,1.2,1.2,80,0.00,CLR,,0.00,WeatherDisplay:10.37,2013-01-16 16:00:00,
2013-01-16 11:05:00,32.8,27.3,29.90,ENE,77,1.2,1.2,80,0.00,CLR,,0.00,WeatherDisplay:10.37,2013-01-16 16:05:00,
2013-01-16 11:10:00,32.9,27.4,29.91,South,190,3.5,3.5,80,0.00,CLR,,0.00,WeatherDisplay:10.37,2013-01-16 16:10:00,
2013-01-16 11:15:00,33.0,27.5,29.91,SSW,192,1.2,1.2,80,0.00,CLR,,0.00,WeatherDisplay:10.37,2013-01-16 16:15:00,
2013-01-16 11:20:00,33.1,27.6,29.90,East,92,4.6,4.6,80,0.00,CLR,,0.00,WeatherDisplay:10.37,2013-01-16 16:20:00,
2013-01-16 11:25:00,33.0,27.5,29.89,SW,228,1.2,1.2,80,0.00,CLR,,0.00,WeatherDisplay:10.37,2013-01-16 16:25:00,
2013-01-16 11:30:00,33.1,27.9,29.88,ENE,78,2.0,2.0,81,0.00,CLR,,0.00,WeatherDisplay:10.37,2013-01-16 16:30:00,
2013-01-16 11:35:00,33.1,27.9,29.88,SE,127,1.2,1.2,81,0.00,CLR,,0.00,WeatherDisplay:10.37,2013-01-16 16:35:00,
2013-01-16 11:40:00,33.2,27.7,29.87,South,187,3.5,3.5,80,0.00,CLR,,0.00,WeatherDisplay:10.37,2013-01-16 16:40:00,
2013-01-16 11:45:00,33.3,28.1,29.86,South,179,2.3,2.3,81,0.00,CLR,,0.00,WeatherDisplay:10.37,2013-01-16 16:45:00,
2013-01-16 11:50:00,33.4,28.2,29.86,SW,218,1.2,1.2,81,0.00,CLR,,0.00,WeatherDisplay:10.37,2013-01-16 16:50:00,
2013-01-16 11:55:00,33.5,28.3,29.86,South,186,2.3,2.3,81,0.00,CLR,,0.00,WeatherDisplay:10.37,2013-01-16 16:55:00,
2013-01-16 12:00:00,33.6,28.4,29.85,SW,224,1.2,1.2,81,0.00,CLR,,0.00,WeatherDisplay:10.37,2013-01-16 17:00:00,
2013-01-16 12:05:00,33.6,28.4,29.86,SSW,203,3.5,3.5,81,0.00,CLR,,0.00,WeatherDisplay:10.37,2013-01-16 17:05:00,
2013-01-16 12:10:00,33.7,28.5,29.85,South,180,3.0,3.0,81,0.00,CLR,,0.00,WeatherDisplay:10.37,2013-01-16 17:10:00,
2013-01-16 12:15:00,33.8,28.9,29.84,SW,215,1.2,1.2,82,0.00,CLR,,0.00,WeatherDisplay:10.37,2013-01-16 17:15:00,
2013-01-16 12:20:00,33.9,28.7,29.85,SSW,197,3.5,3.5,81,0.00,CLR,,0.00,WeatherDisplay:10.37,2013-01-16 17:20:00,
2013-01-16 12:25:00,33.9,28.7,29.84,SSE,162,3.5,3.5,81,0.00,CLR,,0.00,WeatherDisplay:10.37,2013-01-16 17:25:00,
2013-01-16 12:30:00,33.9,28.7,29.85,SSW,200,1.2,1.2,81,0.00,CLR,,0.00,WeatherDisplay:10.37,2013-01-16 17:30:00,
2013-01-16 12:35:00,34.1,29.2,29.84,SW,225,0.0,0.0,82,0.00,CLR,,0.00,WeatherDisplay:10.37,2013-01-16 17:35:00,
2013-01-16 12:40:00,34.2,29.0,29.84,SSE,168,1.0,1.0,81,0.00,CLR,,0.00,WeatherDisplay:10.37,2013-01-16 17:40:00,
2013-01-16 12:45:00,34.5,29.3,29.84,South,180,2.3,2.3,81,0.00,CLR,,0.00,WeatherDisplay:10.37,2013-01-16 17:45:00,
2013-01-16 12:50:00,34.6,28.8,29.83,SW,219,5.8,5.8,79,0.00,CLR,,0.00,WeatherDisplay:10.37,2013-01-16 17:50:00,
2013-01-16 12:55:00,34.7,29.2,29.83,SSW,205,2.3,2.3,80,0.00,CLR,,0.00,WeatherDisplay:10.37,2013-01-16 17:55:00,
2013-01-16 13:00:00,35.2,29.0,29.83,SSE,165,3.5,3.5,78,0.00,CLR,,0.00,WeatherDisplay:10.37,2013-01-16 18:00:00,
2013-01-16 13:05:00,35.3,28.8,29.83,SSE,168,2.3,2.3,77,0.00,CLR,,0.00,WeatherDisplay:10.37,2013-01-16 18:05:00,
2013-01-16 13:10:00,35.5,29.0,29.84,West,260,2.3,2.3,77,0.00,CLR,,0.00,WeatherDisplay:10.37,2013-01-16 18:10:00,
2013-01-16 13:15:00,35.5,29.0,29.84,West,281,3.5,3.5,77,0.00,CLR,,0.00,WeatherDisplay:10.37,2013-01-16 18:15:00,
2013-01-16 13:20:00,35.3,28.8,29.83,WSW,239,3.5,3.5,77,0.00,CLR,,0.00,WeatherDisplay:10.37,2013-01-16 18:20:00,
2013-01-16 13:25:00,35.1,28.6,29.83,West,262,4.6,4.6,77,0.00,CLR,,0.00,WeatherDisplay:10.37,2013-01-16 18:25:00,
2013-01-16 13:30:00,35.2,28.7,29.82,WSW,247,3.5,3.5,77,0.00,CLR,,0.00,WeatherDisplay:10.37,2013-01-16 18:30:00,
2013-01-16 13:35:00,35.4,28.9,29.82,SW,221,3.5,3.5,77,0.00,CLR,,0.00,WeatherDisplay:10.37,2013-01-16 18:35:00,
2013-01-16 13:40:00,35.7,29.2,29.81,SSW,205,3.5,3.5,77,0.00,CLR,,0.00,WeatherDisplay:10.37,2013-01-16 18:40:00,
2013-01-16 13:45:00,36.0,29.2,29.82,SW,222,3.5,3.5,76,0.00,CLR,,0.00,WeatherDisplay:10.37,2013-01-16 18:45:00,
2013-01-16 13:50:00,36.0,29.2,29.82,WNW,295,3.5,3.5,76,0.00,CLR,,0.00,WeatherDisplay:10.37,2013-01-16 18:50:00,
2013-01-16 13:55:00,35.9,28.7,29.82,SW,219,5.0,5.0,75,0.00,CLR,,0.00,WeatherDisplay:10.37,2013-01-16 18:55:00,
2013-01-16 14:00:00,35.9,28.7,29.82,SSW,204,3.5,3.5,75,0.00,CLR,,0.00,WeatherDisplay:10.37,2013-01-16 19:00:00,
2013-01-16 14:05:00,35.9,28.7,29.81,SSE,148,3.5,3.5,75,0.00,CLR,,0.00,WeatherDisplay:10.37,2013-01-16 19:05:00,
2013-01-16 14:10:00,35.9,28.7,29.81,SW,231,5.8,5.8,75,0.00,CLR,,0.00,WeatherDisplay:10.37,2013-01-16 19:10:00,
2013-01-16 14:15:00,36.1,28.9,29.81,SSW,210,3.5,3.5,75,0.00,CLR,,0.00,WeatherDisplay:10.37,2013-01-16 19:15:00,
2013-01-16 14:20:00,36.3,29.1,29.81,SW,222,5.8,5.8,75,0.00,CLR,,0.00,WeatherDisplay:10.37,2013-01-16 19:20:00,
2013-01-16 14:25:00,36.4,28.9,29.80,SW,233,3.5,3.5,74,0.00,CLR,,0.00,WeatherDisplay:10.37,2013-01-16 19:25:00,
2013-01-16 14:30:00,36.7,29.2,29.80,SW,215,4.6,4.6,74,0.00,CLR,,0.00,WeatherDisplay:10.37,2013-01-16 19:30:00,
2013-01-16 14:35:00,36.8,29.3,29.81,SW,222,6.9,6.9,74,0.00,CLR,,0.00,WeatherDisplay:10.37,2013-01-16 19:35:00,
2013-01-16 14:40:00,36.8,29.3,29.80,WSW,242,3.5,3.5,74,0.00,CLR,,0.00,WeatherDisplay:10.37,2013-01-16 19:40:00,
2013-01-16 14:45:00,37.0,29.1,29.80,West,262,4.6,4.6,73,0.00,CLR,,0.00,WeatherDisplay:10.37,2013-01-16 19:45:00,
2013-01-16 14:50:00,37.2,29.7,29.80,SW,222,5.8,5.8,74,0.00,CLR,,0.00,WeatherDisplay:10.37,2013-01-16 19:50:00,
2013-01-16 14:55:00,37.3,29.4,29.80,WSW,242,3.5,3.5,73,0.00,CLR,,0.00,WeatherDisplay:10.37,2013-01-16 19:55:00,
2013-01-16 15:00:00,37.5,29.6,29.79,South,183,2.0,2.0,73,0.00,CLR,,0.00,WeatherDisplay:10.37,2013-01-16 20:00:00,
2013-01-16 15:05:00,37.7,29.5,29.80,WSW,255,6.0,6.0,72,0.00,CLR,,0.00,WeatherDisplay:10.37,2013-01-16 20:05:00,
2013-01-16 15:10:00,37.9,29.7,29.79,SW,226,3.5,3.5,72,0.00,CLR,,0.00,WeatherDisplay:10.37,2013-01-16 20:10:00,
2013-01-16 15:15:00,38.3,29.7,29.79,WSW,257,4.6,4.6,71,0.00,CLR,,0.00,WeatherDisplay:10.37,2013-01-16 20:15:00,
2013-01-16 15:20:00,38.5,29.6,29.79,SW,218,3.5,3.5,70,0.00,CLR,,0.00,WeatherDisplay:10.37,2013-01-16 20:20:00,
2013-01-16 15:25:00,38.6,29.7,29.79,SW,224,9.2,9.2,70,0.00,CLR,,0.00,WeatherDisplay:10.37,2013-01-16 20:25:00,
2013-01-16 15:30:00,38.5,29.6,29.79,WNW,283,5.8,5.8,70,0.00,CLR,,0.00,WeatherDisplay:10.37,2013-01-16 20:30:00,
2013-01-16 15:35:00,38.4,29.8,29.79,WSW,240,7.0,7.0,71,0.00,CLR,,0.00,WeatherDisplay:10.37,2013-01-16 20:35:00,
2013-01-16 15:40:00,38.3,29.7,29.79,SSW,212,5.8,5.8,71,0.00,CLR,,0.00,WeatherDisplay:10.37,2013-01-16 20:40:00,
2013-01-16 15:45:00,38.5,29.9,29.80,SSW,197,3.5,3.5,71,0.00,CLR,,0.00,WeatherDisplay:10.37,2013-01-16 20:45:00,
2013-01-16 15:50:00,38.1,29.5,29.80,SSW,210,8.1,8.1,71,0.00,CLR,,0.00,WeatherDisplay:10.37,2013-01-16 20:50:00,
2013-01-16 15:55:00,37.5,29.3,29.80,SW,215,3.5,3.5,72,0.00,CLR,,0.00,WeatherDisplay:10.37,2013-01-16 20:55:00,
2013-01-16 16:00:00,37.2,29.3,29.79,SW,222,3.5,3.5,73,0.00,CLR,,0.00,WeatherDisplay:10.37,2013-01-16 21:00:00,
2013-01-16 16:05:00,37.1,29.6,29.79,SSW,205,3.5,3.5,74,0.00,CLR,,0.00,WeatherDisplay:10.37,2013-01-16 21:05:00,
2013-01-16 16:10:00,37.0,29.5,29.80,SSW,212,4.6,4.6,74,0.00,CLR,,0.00,WeatherDisplay:10.37,2013-01-16 21:10:00,
2013-01-16 16:15:00,37.0,29.5,29.80,SW,225,1.2,1.2,74,0.00,CLR,,0.00,WeatherDisplay:10.37,2013-01-16 21:15:00,
2013-01-16 16:20:00,36.9,29.4,29.80,SW,214,1.2,1.2,74,0.00,CLR,,0.00,WeatherDisplay:10.37,2013-01-16 21:20:00,
2013-01-16 16:25:00,36.7,29.5,29.80,SW,219,4.6,4.6,75,0.00,CLR,,0.00,WeatherDisplay:10.37,2013-01-16 21:25:00,
2013-01-16 16:30:00,36.5,29.3,29.80,South,186,3.5,3.5,75,0.00,CLR,,0.00,WeatherDisplay:10.37,2013-01-16 21:30:00,
2013-01-16 16:35:00,36.3,29.1,29.80,SSW,205,0.0,0.0,75,0.00,CLR,,0.00,WeatherDisplay:10.37,2013-01-16 21:35:00,
2013-01-16 16:40:00,35.9,29.1,29.80,South,188,4.6,4.6,76,0.00,CLR,,0.00,WeatherDisplay:10.37,2013-01-16 21:40:00,
2013-01-16 16:45:00,35.8,29.0,29.81,SW,219,3.5,3.5,76,0.00,CLR,,0.00,WeatherDisplay:10.37,2013-01-16 21:45:00,
2013-01-16 16:50:00,35.7,29.2,29.80,West,266,3.5,3.5,77,0.00,CLR,,0.00,WeatherDisplay:10.37,2013-01-16 21:50:00,
2013-01-16 16:55:00,35.6,29.1,29.80,SE,134,3.5,3.5,77,0.00,CLR,,0.00,WeatherDisplay:10.37,2013-01-16 21:55:00,
2013-01-16 17:00:00,35.6,28.5,29.80,SW,222,3.5,3.5,75,0.00,CLR,,0.00,WeatherDisplay:10.37,2013-01-16 22:00:00,
2013-01-16 17:05:00,35.6,28.1,29.80,South,173,3.5,3.5,74,0.00,CLR,,0.00,WeatherDisplay:10.37,2013-01-16 22:05:00,
2013-01-16 17:10:00,35.5,28.0,29.80,SW,235,3.5,3.5,74,0.00,CLR,,0.00,WeatherDisplay:10.37,2013-01-16 22:10:00,
2013-01-16 17:15:00,35.5,28.0,29.80,SSW,205,6.9,6.9,74,0.00,CLR,,0.00,WeatherDisplay:10.37,2013-01-16 22:15:00,
2013-01-16 17:20:00,35.4,27.9,29.80,SW,231,4.6,4.6,74,0.00,CLR,,0.00,WeatherDisplay:10.37,2013-01-16 22:20:00,
2013-01-16 17:25:00,35.4,27.9,29.80,South,179,3.5,3.5,74,0.00,CLR,,0.00,WeatherDisplay:10.37,2013-01-16 22:25:00,
2013-01-16 17:30:00,35.1,28.0,29.80,SSE,162,2.3,2.3,75,0.00,CLR,,0.00,WeatherDisplay:10.37,2013-01-16 22:30:00,
2013-01-16 17:35:00,34.9,27.8,29.80,South,180,3.5,3.5,75,0.00,CLR,,0.00,WeatherDisplay:10.37,2013-01-16 22:35:00,
2013-01-16 17:40:00,34.8,28.0,29.80,WSW,239,4.0,4.0,76,0.00,CLR,,0.00,WeatherDisplay:10.37,2013-01-16 22:40:00,
2013-01-16 17:45:00,34.7,27.9,29.80,SW,233,3.5,3.5,76,0.00,CLR,,0.00,WeatherDisplay:10.37,2013-01-16 22:45:00,
2013-01-16 17:50:00,34.7,27.6,29.80,South,186,5.8,5.8,75,0.00,CLR,,0.00,WeatherDisplay:10.37,2013-01-16 22:50:00,
2013-01-16 17:55:00,34.7,27.6,29.80,SSW,210,3.5,3.5,75,0.00,CLR,,0.00,WeatherDisplay:10.37,2013-01-16 22:55:00,
2013-01-16 18:00:00,34.7,27.3,29.80,SW,222,4.6,4.6,74,0.00,CLR,,0.00,WeatherDisplay:10.37,2013-01-16 23:00:00,
2013-01-16 18:05:00,34.8,27.4,29.80,SW,222,5.8,5.8,74,0.00,CLR,,0.00,WeatherDisplay:10.37,2013-01-16 23:05:00,
2013-01-16 18:10:00,34.8,27.0,29.80,SSW,212,2.3,2.3,73,0.00,CLR,,0.00,WeatherDisplay:10.37,2013-01-16 23:10:00,
2013-01-16 18:15:00,34.7,26.9,29.80,SW,228,3.5,3.5,73,0.00,CLR,,0.00,WeatherDisplay:10.37,2013-01-16 23:15:00,
2013-01-16 18:20:00,34.7,26.9,29.81,South,183,4.6,4.6,73,0.00,CLR,,0.00,WeatherDisplay:10.37,2013-01-16 23:20:00,
2013-01-16 18:25:00,34.7,26.9,29.81,SW,231,3.0,3.0,73,0.00,CLR,,0.00,WeatherDisplay:10.37,2013-01-16 23:25:00,
2013-01-16 18:30:00,34.6,26.8,29.81,WSW,249,4.6,4.6,73,0.00,CLR,,0.00,WeatherDisplay:10.37,2013-01-16 23:30:00,
2013-01-16 18:35:00,34.4,27.0,29.81,SW,226,3.5,3.5,74,0.00,CLR,,0.00,WeatherDisplay:10.37,2013-01-16 23:35:00,
2013-01-16 18:40:00,34.4,27.0,29.81,SSW,195,3.5,3.5,74,0.00,CLR,,0.00,WeatherDisplay:10.37,2013-01-16 23:40:00,
2013-01-16 18:45:00,34.5,27.1,29.82,SW,226,10.4,10.4,74,0.00,CLR,,0.00,WeatherDisplay:10.37,2013-01-16 23:45:00,
2013-01-16 18:50:00,34.6,27.2,29.82,SW,218,3.5,3.5,74,0.00,CLR,,0.00,WeatherDisplay:10.37,2013-01-16 23:50:00,
2013-01-16 18:55:00,34.5,27.1,29.82,SW,225,5.8,5.8,74,0.00,CLR,,0.00,WeatherDisplay:10.37,2013-01-16 23:55:00,
2013-01-16 19:00:00,34.5,27.1,29.82,SW,215,11.5,11.5,74,0.00,CLR,,0.00,WeatherDisplay:10.37,2013-01-17 00:00:00,
2013-01-16 19:05:00,34.6,26.8,29.82,SW,215,6.9,6.9,73,0.00,CLR,,0.00,WeatherDisplay:10.37,2013-01-17 00:05:00,
2013-01-16 19:10:00,34.6,26.5,29.82,SW,222,10.0,10.0,72,0.00,CLR,,0.00,WeatherDisplay:10.37,2013-01-17 00:10:00,
2013-01-16 19:15:00,34.7,26.3,29.82,SSW,200,11.5,11.5,71,0.00,CLR,,0.00,WeatherDisplay:10.37,2013-01-17 00:15:00,
2013-01-16 19:20:00,34.7,25.6,29.82,SW,236,12.7,12.7,69,0.00,CLR,,0.00,WeatherDisplay:10.37,2013-01-17 00:20:00,
2013-01-16 19:25:00,34.8,25.7,29.82,SW,231,5.8,5.8,69,0.00,CLR,,0.00,WeatherDisplay:10.37,2013-01-17 00:25:00,
2013-01-16 19:30:00,34.8,25.3,29.82,WSW,249,6.9,6.9,68,0.00,CLR,,0.00,WeatherDisplay:10.37,2013-01-17 00:30:00,
2013-01-16 19:35:00,34.9,25.0,29.82,WSW,240,9.2,9.2,67,0.00,CLR,,0.00,WeatherDisplay:10.37,2013-01-17 00:35:00,
2013-01-16 19:40:00,34.9,24.7,29.82,WSW,238,4.6,4.6,66,0.00,CLR,,0.00,WeatherDisplay:10.37,2013-01-17 00:40:00,
2013-01-16 19:45:00,34.9,24.7,29.82,SW,219,9.2,9.2,66,0.00,CLR,,0.00,WeatherDisplay:10.37,2013-01-17 00:45:00,
2013-01-16 19:50:00,35.0,24.0,29.82,SW,224,17.3,17.3,64,0.00,CLR,,0.00,WeatherDisplay:10.37,2013-01-17 00:50:00,
2013-01-16 19:55:00,35.0,24.4,29.82,SW,236,5.8,5.8,65,0.00,CLR,,0.00,WeatherDisplay:10.37,2013-01-17 00:55:00,
2013-01-16 20:00:00,35.0,24.0,29.83,WSW,239,15.0,15.0,64,0.00,CLR,,0.00,WeatherDisplay:10.37,2013-01-17 01:00:00,
2013-01-16 20:05:00,35.0,24.0,29.82,SSW,211,13.8,13.8,64,0.00,CLR,,0.00,WeatherDisplay:10.37,2013-01-17 01:05:00,
2013-01-16 20:10:00,35.0,24.0,29.83,SSW,208,5.8,5.8,64,0.00,CLR,,0.00,WeatherDisplay:10.37,2013-01-17 01:10:00,
2013-01-16 20:15:00,34.7,23.8,29.82,SW,226,11.0,11.0,64,0.00,CLR,,0.00,WeatherDisplay:10.37,2013-01-17 01:15:00,
2013-01-16 20:20:00,34.8,23.5,29.82,SW,222,9.2,9.2,63,0.00,CLR,,0.00,WeatherDisplay:10.37,2013-01-17 01:20:00,
2013-01-16 20:25:00,34.7,23.8,29.82,SSE,158,10.4,10.4,64,0.00,CLR,,0.00,WeatherDisplay:10.37,2013-01-17 01:25:00,
2013-01-16 20:30:00,34.5,23.6,29.82,WSW,256,10.4,10.4,64,0.00,CLR,,0.00,WeatherDisplay:10.37,2013-01-17 01:30:00,
2013-01-16 20:35:00,34.5,23.6,29.82,WSW,257,6.9,6.9,64,0.00,CLR,,0.00,WeatherDisplay:10.37,2013-01-17 01:35:00,
2013-01-16 20:40:00,34.6,23.7,29.82,SSW,193,5.8,5.8,64,0.00,CLR,,0.00,WeatherDisplay:10.37,2013-01-17 01:40:00,
2013-01-16 20:45:00,34.7,23.8,29.83,SW,226,8.1,8.1,64,0.00,CLR,,0.00,WeatherDisplay:10.37,2013-01-17 01:45:00,
2013-01-16 20:50:00,34.6,23.7,29.83,WSW,249,10.4,10.4,64,0.00,CLR,,0.00,WeatherDisplay:10.37,2013-01-17 01:50:00,
2013-01-16 20:55:00,34.6,23.7,29.83,SW,235,6.9,6.9,64,0.00,CLR,,0.00,WeatherDisplay:10.37,2013-01-17 01:55:00,
2013-01-16 21:00:00,34.6,23.7,29.83,SW,226,9.2,9.2,64,0.00,CLR,,0.00,WeatherDisplay:10.37,2013-01-17 02:00:00,
2013-01-16 21:05:00,34.7,23.8,29.83,WSW,240,11.5,11.5,64,0.00,CLR,,0.00,WeatherDisplay:10.37,2013-01-17 02:05:00,
2013-01-16 21:10:00,34.6,23.7,29.83,SSW,210,11.5,11.5,64,0.00,CLR,,0.00,WeatherDisplay:10.37,2013-01-17 02:10:00,
2013-01-16 21:15:00,34.5,23.6,29.83,WSW,240,9.2,9.2,64,0.00,CLR,,0.00,WeatherDisplay:10.37,2013-01-17 02:15:00,
2013-01-16 21:20:00,34.5,23.6,29.83,WSW,257,9.2,9.2,64,0.00,CLR,,0.00,WeatherDisplay:10.37,2013-01-17 02:20:00,
2013-01-16 21:25:00,34.5,23.6,29.83,SW,231,10.4,10.4,64,0.00,CLR,,0.00,WeatherDisplay:10.37,2013-01-17 02:25:00,
2013-01-16 21:30:00,34.5,23.6,29.83,SW,222,13.8,13.8,64,0.00,CLR,,0.00,WeatherDisplay:10.37,2013-01-17 02:30:00,
2013-01-16 21:35:00,34.6,23.7,29.84,SW,229,9.2,9.2,64,0.00,CLR,,0.00,WeatherDisplay:10.37,2013-01-17 02:35:00,
2013-01-16 21:40:00,34.7,24.1,29.84,WSW,242,6.9,6.9,65,0.00,CLR,,0.00,WeatherDisplay:10.37,2013-01-17 02:40:00,
2013-01-16 21:45:00,34.8,23.9,29.84,WSW,242,8.1,8.1,64,0.00,CLR,,0.00,WeatherDisplay:10.37,2013-01-17 02:45:00,
2013-01-16 21:50:00,34.9,23.9,29.85,SW,219,8.0,8.0,64,0.00,CLR,,0.00,WeatherDisplay:10.37,2013-01-17 02:50:00,
2013-01-16 21:55:00,34.9,23.9,29.85,SSW,212,9.2,9.2,64,0.00,CLR,,0.00,WeatherDisplay:10.37,2013-01-17 02:55:00,
2013-01-16 22:00:00,35.0,24.0,29.84,WSW,247,6.9,6.9,64,0.00,CLR,,0.00,WeatherDisplay:10.37,2013-01-17 03:00:00,
2013-01-16 22:05:00,35.0,24.0,29.84,West,266,6.9,6.9,64,0.00,CLR,,0.00,WeatherDisplay:10.37,2013-01-17 03:05:00,
2013-01-16 22:10:00,35.1,23.8,29.84,SW,233,6.0,6.0,63,0.00,CLR,,0.00,WeatherDisplay:10.37,2013-01-17 03:10:00,
2013-01-16 22:15:00,35.2,23.9,29.84,SSW,205,7.0,7.0,63,0.00,CLR,,0.00,WeatherDisplay:10.37,2013-01-17 03:15:00,
2013-01-16 22:20:00,35.2,23.5,29.84,WSW,245,9.2,9.2,62,0.00,CLR,,0.00,WeatherDisplay:10.37,2013-01-17 03:20:00,
2013-01-16 22:25:00,35.3,23.6,29.84,SW,228,6.9,6.9,62,0.00,CLR,,0.00,WeatherDisplay:10.37,2013-01-17 03:25:00,
2013-01-16 22:30:00,35.3,24.0,29.83,West,273,8.0,8.0,63,0.00,CLR,,0.00,WeatherDisplay:10.37,2013-01-17 03:30:00,
2013-01-16 22:35:00,35.4,23.7,29.84,SW,226,5.0,5.0,62,0.00,CLR,,0.00,WeatherDisplay:10.37,2013-01-17 03:35:00,
2013-01-16 22:40:00,35.5,23.4,29.83,WSW,248,7.0,7.0,61,0.00,CLR,,0.00,WeatherDisplay:10.37,2013-01-17 03:40:00,
2013-01-16 22:45:00,35.5,23.4,29.83,WNW,286,8.1,8.1,61,0.00,CLR,,0.00,WeatherDisplay:10.37,2013-01-17 03:45:00,
2013-01-16 22:50:00,35.6,23.9,29.83,WSW,246,4.6,4.6,62,0.00,CLR,,0.00,WeatherDisplay:10.37,2013-01-17 03:50:00,
2013-01-16 22:55:00,35.6,23.5,29.83,WSW,253,6.9,6.9,61,0.00,CLR,,0.00,WeatherDisplay:10.37,2013-01-17 03:55:00,
2013-01-16 23:00:00,35.7,23.9,29.83,West,259,6.0,6.0,62,0.00,CLR,,0.00,WeatherDisplay:10.37,2013-01-17 04:00:00,
2013-01-16 23:05:00,35.8,24.0,29.83,WSW,257,6.9,6.9,62,0.00,CLR,,0.00,WeatherDisplay:10.37,2013-01-17 04:05:00,
2013-01-16 23:10:00,36.0,24.2,29.83,WSW,239,6.9,6.9,62,0.00,CLR,,0.00,WeatherDisplay:10.37,2013-01-17 04:10:00,
2013-01-16 23:15:00,36.0,24.6,29.83,SSW,212,6.0,6.0,63,0.00,CLR,,0.00,WeatherDisplay:10.37,2013-01-17 04:15:00,
2013-01-16 23:20:00,36.0,25.4,29.84,West,262,6.9,6.9,65,0.00,CLR,,0.00,WeatherDisplay:10.37,2013-01-17 04:20:00,
2013-01-16 23:25:00,36.3,25.7,29.84,SW,226,13.8,13.8,65,0.00,CLR,,0.00,WeatherDisplay:10.37,2013-01-17 04:25:00,
2013-01-16 23:30:00,36.4,25.7,29.84,SW,217,8.1,8.1,65,0.00,CLR,,0.00,WeatherDisplay:10.37,2013-01-17 04:30:00,
2013-01-16 23:35:00,36.5,25.8,29.84,SW,225,7.0,7.0,65,0.00,CLR,,0.00,WeatherDisplay:10.37,2013-01-17 04:35:00,
2013-01-16 23:40:00,36.5,25.8,29.84,WNW,287,17.3,17.3,65,0.00,CLR,,0.00,WeatherDisplay:10.37,2013-01-17 04:40:00,
2013-01-16 23:45:00,36.5,25.8,29.84,SW,231,11.5,11.5,65,0.00,CLR,,0.00,WeatherDisplay:10.37,2013-01-17 04:45:00,
2013-01-16 23:50:00,36.6,26.3,29.84,SW,226,11.5,11.5,66,0.00,CLR,,0.00,WeatherDisplay:10.37,2013-01-17 04:50:00,
2013-01-16 23:55:00,36.5,26.2,29.84,WSW,239,12.0,12.0,66,0.00,CLR,,0.00,WeatherDisplay:10.37,2013-01-17 04:55:00,